Location: Unspecified
(0.0000°N, 0.0000°E)
Time: 17:38:44
(UTC+00:00)

deb Delta 126 - Pass Details

Date: 20 February 2026
Orbit: 1485 x 1545 km, 102.1° (Epoch: 6 March)

Event Time Altitude Azimuth Distance (km) Brightness Sun altitude
Rises 04:31:07 0° 351° (N) 4,661 ? -25.2°
Enters shadow 04:34:09 - 341° (NNW) 3,787 ? -24.4°
Exits shadow 04:50:09 - 227° (SW) 4,298 ? -20.5°
Sets 04:51:16 0° 223° (SW) 4,623 ? -20.2°
